Vorticity
4 7 4 3 4 9 2 10 3 -12 17 32 8 15 -15 0 15 9 9 8 7 7 6 7 10 10 11 13 5 8 9 7 5 2 3 4 5 5
5 5 8 3 2 -1 3 -3 7 7 6 7 7 19 29 14 13 20 20 8 13 12 8 4 7 7 6 6 7 6 5 5 7 3 4 5 6 5
6 9 6 5 5 0 8 4 12 9 -6 -33 -18 -26 1 23 20 7 5 6 7 6 6 9 8 5 4 5 6 7 8 6 7 7 7 7 8 9
9 9 8 7 7 3 5 9 7 4 5 19 19 21 6 12 3 7 7 6 6 5 5 6 6 6 6 5 6 6 6 6 6 8 7 6 7 9
9 11 8 3 7 10 8 8 15 3 -5 -6 8 6 3 8 9 6 4 8 7 6 5 5 4 4 5 6 6 5 7 7 7 8 8 9 12 13
5 4 6 8 6 3 9 13 7 10 15 2 7 6 5 -3 8 9 9 6 6 6 4 4 5 5 4 6 7 7 9 7 5 7 10 11 9 7
8 5 2 3 6 8 7 9 8 7 7 8 4 3 6 7 7 7 8 8 5 5 6 6 5 6 9 9 8 8 5 8 8 9 11 9 6 7
13 7 10 13 12 11 10 10 10 10 8 5 8 8 4 4 6 9 6 5 6 9 2 3 7 10 10 8 8 7 8 7 10 8 6 9 6 10
10 15 17 13 13 12 8 12 11 9 10 6 11 8 7 5 3 5 9 6 6 6 6 9 8 9 8 7 8 8 8 8 7 2 1 1 9 15
24 14 12 8 8 9 8 5 6 11 7 18 14 3 10 18 13 9 7 9 8 9 10 8 8 10 9 9 8 8 8 8 5 6 4 2 15 13
19 8 10 13 6 11 4 5 12 9 8 11 12 22 13 7 4 1 5 6 7 10 10 9 11 10 9 8 10 10 17 14 12 12 9 7 24 13
3 20 9 10 15 26 4 4 -9 7 17 18 13 9 10 10 13 14 11 10 10 9 7 12 10 10 11 11 15 10 9 8 10 13 16 25 14 14
26 1 19 17 50 37 55 -13 10 15 10 7 12 13 12 13 12 11 10 10 12 11 11 9 9 10 10 13 13 1 1 11 15 19 24 17 6 14
26 9 7 7 10 9 9 14 11 12 13 14 13 13 13 13 12 12 13 13 12 11 9 8 12 9 6 11 7 0 4 13 21 24 15 8 11 12
-9 8 6 16 3 8 10 10 6 6 5 6 10 11 12 14 13 12 11 11 12 13 13 11 11 7 5 -2 6 9 16 20 25 19 16 20 17 17
-1 8 9 7 12 6 6 9 8 9 10 9 9 10 10 10 10 10 12 10 7 13 10 10 12 14 10 6 7 12 17 18 24 16 12 15 17 15
8 12 6 11 5 8 5 14 11 11 10 9 10 9 9 11 12 12 10 9 11 9 13 15 12 17 23 17 9 25 16 19 12 9 9 9 4 8
11 10 10 6 10 12 10 11 8 7 8 7 10 10 12 13 13 14 15 15 14 14 22 22 25 22 23 26 23 21 11 12 17 18 21 18 10 4
8 10 5 6 3 4 7 11 16 10 7 6 9 8 9 11 11 11 14 13 13 19 13 6 6 13 14 10 8 7 7 7 7 5 4 4 4 4
12 10 16 14 7 4 1 9 10 10 8 6 6 8 9 14 6 2 21 23 15 11 9 -2 5 6 7 3 6 6 7 10 6 6 9 11 11 12
8 2 6 6 5 6 1 4 5 1 7 10 10 1 10 1 10 0 21 17 11 15 11 7 15 10 9 8 5 5 7 4 4 6 5 6 8 10
6 5 7 1 6 7 8 10 10 7 4 6 20 12 3 11 3 9 9 9 9 12 12 13 13 11 7 7 14 21 2 5 6 7 7 9 9 7
15 13 9 8 9 10 9 7 5 10 4 16 11 3 13 -4 22 10 12 -4 7 16 25 22 15 6 5 5 5 5 7 8 8 11 9 5 6 9
Height
5680 5686 5692 5697 5702 5705 5711 5717 5719 5720 5722 5726 5731 5733 5737 5741 5742 5746 5750 5753 5756 5758 5759 5760 5761 5761 5762 5763 5762 5760 5758 5757 5756 5755 5753 5751 5748 5745
5665 5672 5679 5685 5690 5695 5701 5706 5707 5712 5716 5718 5720 5721 5724 5728 5731 5735 5739 5741 5744 5746 5748 5749 5749 5750 5750 5750 5750 5748 5747 5746 5745 5744 5741 5738 5736 5732
5651 5659 5667 5672 5678 5683 5689 5694 5695 5701 5705 5705 5706 5709 5714 5717 5721 5725 5728 5731 5733 5735 5737 5737 5738 5738 5739 5739 5738 5736 5736 5734 5731 5730 5728 5725 5722 5718
5637 5644 5652 5659 5664 5669 5675 5680 5685 5690 5693 5695 5699 5702 5706 5706 5711 5715 5717 5719 5721 5723 5724 5726 5726 5726 5726 5726 5726 5725 5722 5720 5719 5716 5714 5711 5707 5703
5621 5629 5637 5644 5650 5657 5662 5668 5673 5677 5682 5680 5688 5693 5696 5698 5701 5704 5706 5708 5710 5710 5712 5712 5714 5714 5714 5714 5713 5711 5709 5708 5705 5702 5699 5697 5693 5688
5606 5614 5622 5629 5636 5643 5648 5654 5659 5664 5670 5672 5676 5680 5683 5686 5690 5693 5695 5696 5697 5698 5699 5700 5701 5701 5701 5700 5699 5697 5696 5693 5690 5688 5685 5682 5678 5674
5593 5600 5607 5615 5621 5628 5635 5640 5645 5650 5655 5660 5664 5667 5670 5674 5678 5680 5683 5683 5685 5686 5687 5687 5688 5687 5687 5686 5685 5683 5680 5678 5676 5673 5671 5667 5664 5661
5578 5586 5594 5600 5607 5614 5621 5627 5632 5638 5643 5648 5652 5657 5658 5661 5664 5666 5668 5671 5675 5673 5673 5675 5673 5675 5673 5672 5670 5668 5665 5663 5661 5658 5655 5653 5650 5647
5564 5573 5580 5588 5595 5601 5608 5615 5621 5625 5630 5635 5639 5643 5645 5647 5649 5651 5653 5657 5659 5660 5660 5662 5658 5661 5657 5656 5655 5653 5652 5648 5645 5643 5641 5639 5636 5634
5552 5559 5568 5575 5583 5589 5596 5602 5609 5613 5617 5622 5626 5629 5631 5634 5635 5637 5639 5642 5645 5646 5644 5647 5645 5646 5644 5643 5640 5638 5636 5634 5631 5629 5627 5624 5621 5618
5540 5548 5556 5563 5570 5577 5585 5590 5597 5602 5604 5607 5610 5614 5616 5619 5621 5622 5625 5626 5629 5631 5628 5629 5630 5629 5629 5628 5625 5623 5621 5619 5616 5612 5610 5608 5605 5603
5532 5539 5545 5554 5559 5566 5573 5579 5584 5588 5589 5592 5595 5598 5601 5604 5605 5607 5609 5612 5613 5616 5614 5614 5615 5613 5614 5615 5612 5608 5605 5602 5599 5596 5593 5591 5589 5588
5521 5527 5534 5542 5548 5556 5562 5567 5571 5573 5577 5579 5582 5585 5587 5589 5591 5593 5595 5597 5598 5599 5598 5598 5600 5599 5599 5600 5598 5594 5590 5586 5582 5579 5577 5575 5574 5572
5510 5519 5525 5532 5538 5544 5550 5555 5558 5561 5565 5568 5571 5573 5574 5576 5578 5581 5581 5583 5583 5584 5584 5583 5584 5584 5584 5585 5583 5580 5576 5571 5566 5564 5563 5562 5560 5558
5502 5509 5515 5521 5527 5531 5537 5542 5547 5550 5553 5557 5559 5561 5563 5565 5567 5568 5568 5569 5570 5570 5570 5569 5568 5568 5568 5569 5568 5565 5562 5557 5553 5550 5549 5548 5546 5544
5493 5499 5506 5512 5518 5522 5527 5532 5536 5539 5543 5546 5548 5550 5551 5553 5554 5555 5556 5556 5557 5556 5556 5555 5555 5555 5555 5554 5554 5551 5548 5544 5541 5539 5538 5536 5534 5532
5484 5490 5496 5502 5507 5512 5516 5522 5526 5530 5533 5535 5537 5538 5540 5541 5542 5542 5543 5544 5544 5543 5543 5542 5541 5541 5540 5540 5540 5538 5534 5531 5528 5528 5526 5524 5522 5519
5476 5480 5486 5492 5498 5502 5507 5512 5515 5519 5521 5524 5526 5527 5528 5529 5529 5530 5530 5531 5530 5530 5530 5529 5528 5528 5528 5527 5526 5524 5521 5519 5517 5516 5514 5511 5509 5506
5466 5471 5477 5482 5488 5492 5496 5501 5505 5508 5511 5513 5515 5516 5517 5518 5519 5519 5518 5518 5518 5518 5518 5518 5518 5517 5516 5515 5514 5512 5511 5509 5507 5505 5503 5501 5497 5493
5456 5462 5468 5473 5478 5482 5486 5491 5494 5497 5500 5502 5504 5506 5507 5508 5509 5509 5507 5506 5507 5507 5507 5508 5508 5507 5506 5505 5504 5502 5500 5498 5496 5493 5491 5488 5485 5481
5446 5451 5457 5462 5467 5471 5476 5479 5483 5486 5488 5491 5493 5496 5497 5498 5498 5498 5497 5497 5497 5496 5496 5496 5496 5496 5495 5494 5493 5491 5489 5487 5485 5482 5479 5476 5472 5467
5435 5439 5445 5450 5455 5459 5464 5468 5469 5474 5477 5479 5482 5484 5486 5487 5487 5488 5488 5487 5487 5486 5486 5485 5485 5484 5484 5484 5482 5479 5478 5476 5472 5469 5467 5463 5459 5455
5423 5427 5432 5437 5441 5446 5451 5454 5457 5462 5465 5468 5469 5472 5474 5476 5476 5477 5478 5478 5477 5476 5475 5474 5474 5474 5473 5472 5470 5468 5466 5463 5459 5456 5452 5449 5445 5441